TimeEDT,TemperatureF,Dew PointF,Humidity,Sea Level PressureIn,VisibilityMPH,Wind Direction,Wind SpeedMPH,Gust SpeedMPH,PrecipitationIn,Events,Conditions,WindDirDegrees,DateUTC
12:15 AM,-9999,-9999,N/A,30.12,10.0,Calm,Calm,-,N/A,,Clear,0,2013-05-27 04:15:00
12:35 AM,-9999,-9999,N/A,30.12,10.0,Calm,Calm,-,N/A,,Clear,0,2013-05-27 04:35:00
12:55 AM,-9999,-9999,N/A,30.13,3.0,Calm,Calm,-,N/A,,Clear,0,2013-05-27 04:55:00
1:15 AM,-9999,-9999,N/A,30.12,1.0,Calm,Calm,-,N/A,,Clear,0,2013-05-27 05:15:00
1:35 AM,-9999,-9999,N/A,30.12,10.0,Calm,Calm,-,N/A,,Clear,0,2013-05-27 05:35:00
1:55 AM,-9999,-9999,N/A,30.12,3.0,Calm,Calm,-,N/A,,Clear,0,2013-05-27 05:55:00
2:15 AM,-9999,-9999,N/A,30.11,10.0,Calm,Calm,-,N/A,,Mostly Cloudy,0,2013-05-27 06:15:00
2:35 AM,-9999,-9999,N/A,30.11,2.5,Calm,Calm,-,N/A,,Overcast,0,2013-05-27 06:35:00
2:55 AM,-9999,-9999,N/A,30.12,0.8,Calm,Calm,-,N/A,,Overcast,0,2013-05-27 06:55:00
3:35 AM,-9999,-9999,N/A,30.12,0.2,Calm,Calm,-,N/A,,Overcast,0,2013-05-27 07:35:00
3:55 AM,-9999,-9999,N/A,30.12,0.2,Calm,Calm,-,N/A,,Overcast,0,2013-05-27 07:55:00
4:15 AM,-9999,-9999,N/A,30.12,0.2,Calm,Calm,-,N/A,,Overcast,0,2013-05-27 08:15:00
4:35 AM,-9999,-9999,N/A,30.13,0.2,Calm,Calm,-,N/A,,Overcast,0,2013-05-27 08:35:00
4:55 AM,-9999,-9999,N/A,30.13,0.2,Calm,Calm,-,N/A,,Overcast,0,2013-05-27 08:55:00
5:15 AM,-9999,-9999,N/A,30.14,0.5,North,3.5,-,N/A,,Overcast,350,2013-05-27 09:15:00
5:35 AM,-9999,-9999,N/A,30.15,0.5,Calm,Calm,-,N/A,,Overcast,0,2013-05-27 09:35:00
5:55 AM,-9999,-9999,N/A,30.16,2.0,North,3.5,-,N/A,,Overcast,10,2013-05-27 09:55:00
6:15 AM,-9999,-9999,N/A,30.16,0.2,Calm,Calm,-,N/A,,Overcast,0,2013-05-27 10:15:00
6:35 AM,-9999,-9999,N/A,30.16,0.2,Calm,Calm,-,N/A,,Overcast,0,2013-05-27 10:35:00
6:55 AM,-9999,-9999,N/A,30.17,0.5,Calm,Calm,-,N/A,,Overcast,0,2013-05-27 10:55:00
7:15 AM,-9999,-9999,N/A,30.17,2.0,Calm,Calm,-,N/A,,Overcast,0,2013-05-27 11:15:00
7:35 AM,-9999,-9999,N/A,30.17,0.5,Calm,Calm,-,N/A,,Overcast,0,2013-05-27 11:35:00
7:55 AM,-9999,-9999,N/A,30.17,2.0,Calm,Calm,-,N/A,,Overcast,0,2013-05-27 11:55:00
8:15 AM,-9999,-9999,N/A,30.17,10.0,Calm,Calm,-,N/A,,Mostly Cloudy,0,2013-05-27 12:15:00
8:36 AM,-9999,-9999,N/A,30.17,10.0,Calm,Calm,-,N/A,,Clear,0,2013-05-27 12:36:00
8:55 AM,-9999,-9999,N/A,30.17,10.0,Calm,Calm,-,N/A,,Clear,0,2013-05-27 12:55:00
9:15 AM,-9999,-9999,N/A,30.17,10.0,Calm,Calm,-,N/A,,Clear,0,2013-05-27 13:15:00
9:35 AM,-9999,-9999,N/A,30.17,10.0,Calm,Calm,-,N/A,,Clear,0,2013-05-27 13:35:00
9:55 AM,-9999,-9999,N/A,30.16,10.0,Calm,Calm,-,N/A,,Clear,0,2013-05-27 13:55:00
10:15 AM,-9999,-9999,N/A,30.16,10.0,West,3.5,-,N/A,,Clear,270,2013-05-27 14:15:00
10:35 AM,-9999,-9999,N/A,30.15,10.0,NNW,9.2,16.1,N/A,,Clear,340,2013-05-27 14:35:00
10:55 AM,-9999,-9999,N/A,30.15,10.0,NNW,12.7,25.3,N/A,,Clear,340,2013-05-27 14:55:00
11:15 AM,-9999,-9999,N/A,30.14,10.0,NNW,10.4,18.4,N/A,,Clear,330,2013-05-27 15:15:00
11:35 AM,-9999,-9999,N/A,30.14,10.0,North,11.5,16.1,N/A,,Clear,350,2013-05-27 15:35:00
11:55 AM,-9999,-9999,N/A,30.14,10.0,NNW,15.0,-,N/A,,Clear,340,2013-05-27 15:55:00
12:15 PM,-9999,-9999,N/A,30.14,10.0,NNW,15.0,20.7,N/A,,Clear,340,2013-05-27 16:15:00
12:35 PM,-9999,-9999,N/A,30.13,10.0,NW,11.5,19.6,N/A,,Clear,320,2013-05-27 16:35:00
12:55 PM,-9999,-9999,N/A,30.13,10.0,NNW,12.7,18.4,N/A,,Clear,330,2013-05-27 16:55:00
1:15 PM,-9999,-9999,N/A,30.12,10.0,Calm,Calm,-,N/A,,Clear,0,2013-05-27 17:15:00
1:35 PM,-9999,-9999,N/A,30.12,10.0,NNW,9.2,-,N/A,,Clear,340,2013-05-27 17:35:00
1:55 PM,-9999,-9999,N/A,30.11,10.0,West,8.1,-,N/A,,Clear,260,2013-05-27 17:55:00
2:15 PM,-9999,-9999,N/A,30.11,10.0,WNW,6.9,17.3,N/A,,Clear,300,2013-05-27 18:15:00
2:35 PM,-9999,-9999,N/A,30.11,10.0,West,18.4,26.5,N/A,,Clear,270,2013-05-27 18:35:00
2:55 PM,-9999,-9999,N/A,30.11,10.0,North,11.5,16.1,N/A,,Clear,350,2013-05-27 18:55:00
3:15 PM,-9999,-9999,N/A,30.11,10.0,NNW,11.5,17.3,N/A,,Clear,330,2013-05-27 19:15:00
3:35 PM,-9999,-9999,N/A,30.11,10.0,NW,10.4,-,N/A,,Clear,310,2013-05-27 19:35:00
3:55 PM,-9999,-9999,N/A,30.10,10.0,WNW,10.4,17.3,N/A,,Clear,300,2013-05-27 19:55:00
4:15 PM,-9999,-9999,N/A,30.10,10.0,North,6.9,20.7,N/A,,Clear,360,2013-05-27 20:15:00
4:35 PM,-9999,-9999,N/A,30.10,10.0,WNW,8.1,18.4,N/A,,Clear,290,2013-05-27 20:35:00
4:55 PM,-9999,-9999,N/A,30.10,10.0,NW,8.1,17.3,N/A,,Clear,310,2013-05-27 20:55:00
5:15 PM,-9999,-9999,N/A,30.10,10.0,WNW,4.6,18.4,N/A,,Clear,300,2013-05-27 21:15:00
5:35 PM,-9999,-9999,N/A,30.10,10.0,NNW,8.1,-,N/A,,Clear,330,2013-05-27 21:35:00
5:55 PM,-9999,-9999,N/A,30.09,10.0,NW,9.2,-,N/A,,Clear,320,2013-05-27 21:55:00
6:15 PM,-9999,-9999,N/A,30.10,10.0,NW,6.9,-,N/A,,Clear,320,2013-05-27 22:15:00
6:35 PM,-9999,-9999,N/A,30.10,10.0,NW,6.9,-,N/A,,Clear,320,2013-05-27 22:35:00
6:55 PM,-9999,-9999,N/A,30.10,10.0,NNW,4.6,-,N/A,,Clear,330,2013-05-27 22:55:00
7:15 PM,-9999,-9999,N/A,30.11,10.0,NNW,4.6,-,N/A,,Clear,330,2013-05-27 23:15:00
7:35 PM,-9999,-9999,N/A,30.11,10.0,Calm,Calm,-,N/A,,Clear,0,2013-05-27 23:35:00
7:55 PM,-9999,-9999,N/A,30.12,10.0,Calm,Calm,-,N/A,,Clear,0,2013-05-27 23:55:00
8:15 PM,-9999,-9999,N/A,30.12,10.0,Calm,Calm,-,N/A,,Clear,0,2013-05-28 00:15:00
8:35 PM,-9999,-9999,N/A,30.13,10.0,Calm,Calm,-,N/A,,Clear,0,2013-05-28 00:35:00
8:55 PM,-9999,-9999,N/A,30.14,10.0,SW,3.5,-,N/A,,Clear,230,2013-05-28 00:55:00
9:15 PM,-9999,-9999,N/A,30.15,7.0,Calm,Calm,-,N/A,,Clear,0,2013-05-28 01:15:00
9:35 PM,-9999,-9999,N/A,30.16,10.0,Calm,Calm,-,N/A,,Clear,0,2013-05-28 01:35:00
9:55 PM,-9999,-9999,N/A,30.16,10.0,Calm,Calm,-,N/A,,Clear,0,2013-05-28 01:55:00
10:15 PM,-9999,-9999,N/A,30.17,10.0,Calm,Calm,-,N/A,,Clear,0,2013-05-28 02:15:00
10:35 PM,-9999,-9999,N/A,30.17,10.0,Calm,Calm,-,N/A,,Clear,0,2013-05-28 02:35:00
10:55 PM,-9999,-9999,N/A,30.18,10.0,Calm,Calm,-,N/A,,Clear,0,2013-05-28 02:55:00
11:15 PM,-9999,-9999,N/A,30.19,10.0,Calm,Calm,-,N/A,,Clear,0,2013-05-28 03:15:00
11:35 PM,-9999,-9999,N/A,30.19,10.0,Calm,Calm,-,N/A,,Clear,0,2013-05-28 03:35:00
11:55 PM,-9999,-9999,N/A,30.20,10.0,Calm,Calm,-,N/A,,Clear,0,2013-05-28 03:55:00